Weather History for Sand Point, AK

Change the Weather History Date:

Friday, October 7, 2011

  Actual Average Record
Temperature  
Mean Temperature 44 °F -  
Max Temperature 46 °F 45 °F 54 °F (1985)
Min Temperature 42 °F 40 °F 33 °F (1980)
Degree Days  
Heating Degree Days 21    
Moisture  
Dew Point 35 °F    
Average Humidity 71    
Maximum Humidity 87    
Minimum Humidity 46    
Precipitation  
Precipitation 0.00 in - - ()
Sea Level Pressure  
Sea Level Pressure 29.82 in    
Wind  
Wind Speed 9 mph (NW)    
Max Wind Speed 15 mph    
Max Gust Speed 20 mph    
Visibility 10 miles    
Events      
Averages and records for this station are not official NWS values.
T = Trace of Precipitation, MM = Missing Value Source: NWS Daily Summary

Daily Weather History Graph

Daily Weather History Graph

Search for Another Location

Airport:

Trip Planner

Search our weather history database for the weather conditions in past years. The results will help you decide how hot, cold, wet, or windy it might be!

Date:

Astronomy

Oct. 07, 2011 Rise Set
Actual Time 8:56 AM AKDT 8:02 PM AKDT
Civil Twilight 8:19 AM AKDT 8:38 PM AKDT
Nautical Twilight 7:37 AM AKDT 9:21 PM AKDT
Astronomical Twilight 6:54 AM AKDT 10:04 PM AKDT
Moon 6:20 PM AKDT (10/7) 4:20 AM AKDT (10/7)
Length of Visible Light 12h 19m
Length of Day
11h 06m
Waxing Gibbous, 84% of the Moon is Illuminated
Oct 7
Waxing Gibbous
Oct 11
Full
Oct 19
Last Quarter
Oct 26
New
Nov 2
First Quarter

Hourly Weather History & Observations

Time (AKDT) Temp. Windchill Dew Point Humidity Pressure Visibility Wind Dir Wind Speed Gust Speed Precip Events Conditions
12:16 AM 44.6 °F 42.2 °F 41.0 °F 87% 29.71 in 10.0 mi NNW 4.6 mph - N/A   Overcast
12:36 AM 44.6 °F 40.7 °F 41.0 °F 87% 29.71 in 8.0 mi WNW 6.9 mph - N/A   Overcast
12:56 AM 44.6 °F 41.4 °F 39.2 °F 81% 29.71 in 10.0 mi NW 5.8 mph - N/A   Overcast
1:16 AM 44.6 °F 41.4 °F 39.2 °F 81% 29.72 in 10.0 mi WNW 5.8 mph - N/A   Overcast
1:36 AM 44.6 °F 43.1 °F 41.0 °F 87% 29.73 in 10.0 mi WNW 3.5 mph - N/A   Overcast
1:56 AM 44.6 °F 43.1 °F 39.2 °F 81% 29.73 in 10.0 mi West 3.5 mph - N/A   Overcast
2:16 AM 44.6 °F 42.2 °F 39.2 °F 81% 29.73 in 10.0 mi West 4.6 mph - N/A   Overcast
2:36 AM 44.6 °F 40.7 °F 39.2 °F 81% 29.74 in 10.0 mi West 6.9 mph - N/A   Overcast
2:56 AM 44.6 °F 40.2 °F 39.2 °F 81% 29.74 in 10.0 mi WNW 8.1 mph - N/A   Overcast
3:16 AM 42.8 °F 37.5 °F 39.2 °F 87% 29.74 in 10.0 mi West 9.2 mph - N/A   Overcast
3:36 AM 42.8 °F 38.0 °F 37.4 °F 81% 29.75 in 10.0 mi NW 8.1 mph - N/A   Overcast
3:56 AM 42.8 °F 38.6 °F 37.4 °F 81% 29.75 in 10.0 mi NW 6.9 mph - N/A   Overcast
4:16 AM 42.8 °F 38.6 °F 37.4 °F 81% 29.75 in 10.0 mi NW 6.9 mph - N/A   Mostly Cloudy
4:36 AM 42.8 °F 39.3 °F 37.4 °F 81% 29.76 in 10.0 mi WNW 5.8 mph - N/A   Mostly Cloudy
4:56 AM 42.8 °F 38.0 °F 37.4 °F 81% 29.76 in 10.0 mi West 8.1 mph - N/A   Mostly Cloudy
5:16 AM 42.8 °F 38.0 °F 35.6 °F 76% 29.77 in 10.0 mi West 8.1 mph - N/A   Clear
5:36 AM 42.8 °F 38.6 °F 37.4 °F 81% 29.77 in 10.0 mi West 6.9 mph - N/A   Mostly Cloudy
5:56 AM 42.8 °F 38.6 °F 35.6 °F 76% 29.77 in 10.0 mi West 6.9 mph - N/A   Mostly Cloudy
6:16 AM 42.8 °F 38.0 °F 37.4 °F 81% 29.78 in 10.0 mi West 8.1 mph - N/A   Overcast
6:36 AM 42.8 °F 37.0 °F 35.6 °F 76% 29.78 in 10.0 mi WNW 10.4 mph - N/A   Overcast
6:56 AM 42.8 °F 37.5 °F 37.4 °F 81% 29.78 in 10.0 mi NW 9.2 mph - N/A   Mostly Cloudy
7:16 AM 42.8 °F 37.0 °F 35.6 °F 76% 29.79 in 10.0 mi NW 10.4 mph 17.3 mph N/A   Mostly Cloudy
7:36 AM 42.8 °F 36.6 °F 35.6 °F 76% 29.79 in 10.0 mi NW 11.5 mph - N/A   Mostly Cloudy
7:56 AM 42.8 °F 37.0 °F 37.4 °F 81% 29.80 in 10.0 mi WNW 10.4 mph - N/A   Mostly Cloudy
8:16 AM 42.8 °F 38.0 °F 37.4 °F 81% 29.80 in 10.0 mi West 8.1 mph - N/A   Mostly Cloudy
8:36 AM 42.8 °F 37.5 °F 37.4 °F 81% 29.81 in 10.0 mi WNW 9.2 mph - N/A   Mostly Cloudy
8:56 AM 42.8 °F 37.5 °F 37.4 °F 81% 29.81 in 10.0 mi West 9.2 mph - N/A   Mostly Cloudy
9:16 AM 42.8 °F 36.2 °F 37.4 °F 81% 29.81 in 10.0 mi WNW 12.7 mph - N/A   Mostly Cloudy
9:36 AM 42.8 °F 36.6 °F 37.4 °F 81% 29.82 in 10.0 mi WNW 11.5 mph - N/A   Mostly Cloudy
9:56 AM 42.8 °F 36.2 °F 37.4 °F 81% 29.83 in 10.0 mi NW 12.7 mph - N/A   Mostly Cloudy
10:16 AM 42.8 °F 36.6 °F 35.6 °F 76% 29.84 in 10.0 mi NNW 11.5 mph - N/A   Mostly Cloudy
10:36 AM 42.8 °F 37.5 °F 35.6 °F 76% 29.84 in 10.0 mi NW 9.2 mph - N/A   Mostly Cloudy
10:56 AM 42.8 °F 36.6 °F 35.6 °F 76% 29.85 in 10.0 mi NNW 11.5 mph - N/A   Mostly Cloudy
11:16 AM 44.6 °F 38.1 °F 37.4 °F 76% 29.85 in 10.0 mi NW 13.8 mph - N/A   Mostly Cloudy
11:36 AM 44.6 °F 37.8 °F 35.6 °F 71% 29.86 in 10.0 mi NW 15.0 mph - N/A   Mostly Cloudy
11:56 AM 44.6 °F 38.4 °F 35.6 °F 71% 29.86 in 10.0 mi NW 12.7 mph - N/A   Mostly Cloudy
12:16 PM 44.6 °F 39.7 °F 33.8 °F 66% 29.87 in 10.0 mi NNW 9.2 mph - N/A   Mostly Cloudy
12:36 PM 44.6 °F 38.8 °F 33.8 °F 66% 29.87 in 10.0 mi NW 11.5 mph - N/A   Mostly Cloudy
12:56 PM 44.6 °F 39.2 °F 32.0 °F 61% 29.88 in 10.0 mi NW 10.4 mph - N/A   Mostly Cloudy
1:16 PM 46.4 °F 40.7 °F 30.2 °F 53% 29.88 in 10.0 mi NW 12.7 mph - N/A   Mostly Cloudy
1:36 PM 46.4 °F 40.4 °F 30.2 °F 53% 29.88 in 10.0 mi NW 13.8 mph - N/A   Mostly Cloudy
1:56 PM 46.4 °F 40.1 °F 30.2 °F 53% 29.89 in 10.0 mi NW 15.0 mph - N/A   Mostly Cloudy
2:16 PM 46.4 °F 40.4 °F 30.2 °F 53% 29.89 in 10.0 mi WNW 13.8 mph 18.4 mph N/A   Mostly Cloudy
2:36 PM 46.4 °F 41.5 °F 28.4 °F 50% 29.89 in 10.0 mi WNW 10.4 mph - N/A   Mostly Cloudy
2:56 PM 46.4 °F 40.7 °F 28.4 °F 50% 29.89 in 10.0 mi NW 12.7 mph - N/A   Scattered Clouds
3:16 PM 46.4 °F 40.4 °F 30.2 °F 53% 29.89 in 10.0 mi WNW 13.8 mph - N/A   Scattered Clouds
3:36 PM 46.4 °F 40.4 °F 30.2 °F 53% 29.90 in 10.0 mi NW 13.8 mph 19.6 mph N/A   Scattered Clouds
3:56 PM 46.4 °F 40.4 °F 30.2 °F 53% 29.90 in 10.0 mi NW 13.8 mph - N/A   Scattered Clouds
4:16 PM 46.4 °F 40.1 °F 30.2 °F 53% 29.90 in 10.0 mi NNW 15.0 mph 18.4 mph N/A   Scattered Clouds
4:36 PM 46.4 °F 40.4 °F 26.6 °F 46% 29.90 in 10.0 mi NW 13.8 mph - N/A   Scattered Clouds
4:56 PM 46.4 °F 40.1 °F 28.4 °F 50% 29.90 in 10.0 mi NW 15.0 mph - N/A   Scattered Clouds
5:16 PM 46.4 °F 40.4 °F 30.2 °F 53% 29.90 in 10.0 mi NW 13.8 mph - N/A   Scattered Clouds
5:36 PM 46.4 °F 40.1 °F 28.4 °F 50% 29.90 in 10.0 mi NNW 15.0 mph - N/A   Scattered Clouds
6:16 PM 44.6 °F 38.1 °F 30.2 °F 57% 29.89 in 10.0 mi NNW 13.8 mph - N/A   Scattered Clouds
6:36 PM 44.6 °F 39.2 °F 28.4 °F 53% 29.89 in 10.0 mi NW 10.4 mph - N/A   Scattered Clouds
6:56 PM 44.6 °F 37.8 °F 32.0 °F 61% 29.89 in 10.0 mi North 15.0 mph 18.4 mph N/A   Scattered Clouds
7:16 PM 44.6 °F 38.8 °F 30.2 °F 57% 29.89 in 10.0 mi North 11.5 mph - N/A   Scattered Clouds
7:36 PM 42.8 °F 37.5 °F 30.2 °F 61% 29.90 in 10.0 mi North 9.2 mph - N/A   Scattered Clouds
7:56 PM 42.8 °F 37.0 °F 30.2 °F 61% 29.91 in 10.0 mi North 10.4 mph - N/A   Clear
8:16 PM 42.8 °F 37.5 °F 32.0 °F 66% 29.91 in 10.0 mi North 9.2 mph - N/A   Partly Cloudy
8:36 PM 42.8 °F 38.0 °F 30.2 °F 61% 29.92 in 10.0 mi North 8.1 mph - N/A   Mostly Cloudy
8:56 PM 42.8 °F 38.6 °F 30.2 °F 61% 29.92 in 10.0 mi North 6.9 mph - N/A   Overcast
9:16 PM 42.8 °F 37.5 °F 30.2 °F 61% 29.92 in 10.0 mi NNW 9.2 mph - N/A   Scattered Clouds
9:36 PM 41.0 °F 36.4 °F 30.2 °F 65% 29.93 in 10.0 mi NNW 6.9 mph - N/A   Clear
9:56 PM 41.0 °F 38.0 °F 32.0 °F 70% 29.93 in 10.0 mi NNW 4.6 mph - N/A   Clear
10:16 PM 41.0 °F 36.4 °F 32.0 °F 70% 29.93 in 10.0 mi NNW 6.9 mph - N/A   Clear
10:36 PM 39.2 °F 35.9 °F 32.0 °F 75% 29.93 in 10.0 mi NW 4.6 mph - N/A   Clear
10:56 PM 39.2 °F 35.9 °F 32.0 °F 75% 29.93 in 10.0 mi NNW 4.6 mph - N/A   Clear
11:16 PM 39.2 °F 37.0 °F 32.0 °F 75% 29.93 in 10.0 mi NW 3.5 mph - N/A   Clear
11:36 PM 37.4 °F - 30.2 °F 75% 29.93 in 10.0 mi Calm Calm - N/A   Clear
11:56 PM 37.4 °F - 32.0 °F 81% 29.93 in 10.0 mi Calm Calm - N/A   Clear